CW6734 Weather Reports


Display with metric or nautical units.
time (UTC)temp
F
wind
direction
speed
MPH
gust
MPH
rain 1hr
in
rain 24hr
in
rain mn
in
humidity
%
barometer
mb
20180528010621 76 202 0.0 0.0 0.00 0.03 0.01 80 1012.9
20180528010314 76 202 0.0 0.0 0.00 0.03 0.01 80 1012.8
20180528005714 76 202 0.0 0.0 0.00 0.03 0.01 80 1012.9
20180528005103 76 202 0.0 0.0 0.00 0.03 0.01 79 1013.0
20180528004750 77 261 0.0 0.0 0.00 0.03 0.01 79 1012.9
20180528004446 77 262 0.0 0.0 0.00 0.03 0.01 78 1012.9
20180528004140 77 262 0.0 0.0 0.00 0.03 0.01 77 1012.9
20180528003833 77 313 0.0 0.0 0.00 0.03 0.01 77 1012.9
20180528003219 77 230 0.0 0.0 0.00 0.03 0.01 76 1013.0
20180528002911 78 204 0.0 0.0 0.00 0.04 0.01 76 1013.0
20180528002301 78 224 0.0 0.0 0.00 0.04 0.01 76 1013.0
20180528001410 78 241 0.0 0.0 0.00 0.04 0.01 75 1012.9
20180528000456 79 179 0.0 0.0 0.00 0.05 0.01 75 1012.9
20180527235837 79 209 0.0 0.0 0.00 0.05 0.01 74 1012.9
20180527235231 80 218 0.0 0.0 0.00 0.06 0.01 73 1012.8
20180527234933 80 223 0.0 0.0 0.00 0.06 0.01 73 1012.7
20180527233704 81 128 0.0 0.0 0.00 0.08 0.01 71 1012.6
20180527233354 81 123 0.0 0.0 0.00 0.08 0.01 71 1012.6
20180527233043 81 137 0.0 0.0 0.00 0.08 0.01 71 1012.5
20180527232738 81 127 0.0 2.0 0.00 0.08 0.01 68 1012.5
20180527232424 81 157 0.0 2.0 0.00 0.08 0.01 68 1012.4
20180527232110 81 141 0.0 2.0 0.00 0.08 0.01 68 1012.4
20180527231456 81 211 0.0 0.0 0.00 0.08 0.01 69 1012.3
20180527230549 82 142 0.0 2.0 0.00 0.08 0.01 69 1012.2
20180527225640 82 138 0.0 3.0 0.00 0.08 0.01 66 1012.2
20180527225339 82 153 0.0 3.0 0.00 0.08 0.01 64 1012.1
20180527225025 82 168 0.0 3.0 0.00 0.08 0.01 65 1012.1
20180527224717 83 157 0.0 4.0 0.00 0.08 0.01 67 1012.1
20180527224410 83 120 0.0 4.0 0.00 0.08 0.01 66 1012.1
20180527224058 83 132 0.0 4.0 0.00 0.08 0.01 63 1012.0
20180527223453 83 149 0.0 4.0 0.00 0.08 0.01 64 1012.0
20180527223138 83 171 0.0 4.0 0.00 0.08 0.01 63 1012.0
20180527222842 83 150 0.0 4.0 0.00 0.08 0.01 65 1012.0
20180527222539 83 106 0.0 3.0 0.00 0.08 0.01 61 1011.9
20180527222240 84 106 0.0 3.0 0.00 0.08 0.01 59 1012.0
20180527221633 84 74 0.0 3.0 0.00 0.08 0.01 64 1012.1
20180527221331 84 177 1.0 3.0 0.00 0.08 0.01 60 1012.0
20180527221032 85 156 0.0 3.0 0.00 0.08 0.01 60 1012.1
20180527220431 85 231 0.0 3.0 0.00 0.08 0.01 59 1012.1
20180527220127 86 215 0.0 3.0 0.00 0.08 0.01 59 1012.1
20180527215209 86 0 0.0 1.0 0.00 0.08 0.01 58 1012.2
20180527214857 86 0 0.0 1.0 0.00 0.08 0.01 60 1012.2
20180527214556 86 5 0.0 0.0 0.00 0.08 0.01 57 1012.2
20180527214246 86 37 0.0 2.0 0.00 0.08 0.01 56 1012.2
20180527213949 86 53 0.0 2.0 0.00 0.08 0.01 61 1012.2
20180527213639 86 215 0.0 3.0 0.00 0.08 0.01 58 1012.2
20180527213328 86 215 0.0 3.0 0.00 0.08 0.01 56 1012.1
20180527213017 86 153 0.0 3.0 0.00 0.08 0.01 58 1012.0
20180527212413 86 119 0.0 3.0 0.00 0.08 0.01 59 1012.0
20180527211751 86 28 0.0 3.0 0.00 0.08 0.01 59 1011.9
20180527211445 86 69 1.0 3.0 0.00 0.08 0.01 61 1011.9
20180527210828 86 56 0.0 3.0 0.00 0.08 0.01 61 1011.9
20180527210520 86 34 0.0 2.0 0.00 0.08 0.01 63 1011.9
20180527210222 86 47 0.0 2.0 0.00 0.08 0.01 62 1011.9
20180527204350 84 9 1.0 4.0 0.00 0.08 0.01 65 1012.0
20180527203743 85 61 0.0 4.0 0.00 0.08 0.01 63 1012.1
20180527203442 85 47 0.0 3.0 0.00 0.08 0.01 62 1012.1
20180527203133 85 23 0.0 2.0 0.00 0.08 0.01 62 1012.0
20180527202827 85 31 0.0 3.0 0.00 0.08 0.01 63 1012.1
20180527202515 85 20 0.0 3.0 0.00 0.08 0.01 64 1012.1
20180527202205 85 20 0.0 3.0 0.00 0.08 0.01 64 1012.1
20180527200946 85 61 0.0 3.0 0.00 0.08 0.01 63 1012.1
20180527200650 85 15 0.0 2.0 0.00 0.08 0.01 62 1012.2
20180527200341 84 51 1.0 2.0 0.00 0.08 0.01 62 1012.1
20180527200038 84 221 0.0 2.0 0.00 0.08 0.01 64 1012.1
20180527195423 84 123 1.0 2.0 0.00 0.08 0.01 66 1012.2
20180527195118 84 339 1.0 2.0 0.00 0.08 0.01 62 1012.2
20180527194816 84 339 0.0 2.0 0.00 0.08 0.01 64 1012.3
20180527194206 84 69 0.0 3.0 0.00 0.08 0.01 66 1012.2
20180527193855 84 348 1.0 3.0 0.00 0.08 0.01 66 1012.2
20180527193550 84 348 1.0 3.0 0.00 0.08 0.01 66 1012.2
20180527192952 84 313 1.0 3.0 0.00 0.08 0.01 64 1012.3
20180527192654 84 165 0.0 3.0 0.00 0.08 0.01 68 1012.3
20180527192359 84 161 0.0 3.0 0.00 0.08 0.01 66 1012.3
20180527191803 83 27 0.0 3.0 0.00 0.08 0.01 67 1012.3
20180527191455 83 39 0.0 3.0 0.00 0.08 0.01 69 1012.3
20180527190850 83 11 0.0 3.0 0.00 0.08 0.01 69 1012.3
20180527190238 82 12 0.0 0.0 0.00 0.08 0.01 70 1012.3
20180527185940 82 59 0.0 0.0 0.00 0.08 0.01 68 1012.4
20180527185643 82 55 0.0 0.0 0.00 0.08 0.01 71 1012.4
20180527185336 82 52 0.0 0.0 0.00 0.08 0.01 70 1012.4
20180527184712 82 46 0.0 3.0 0.00 0.08 0.01 73 1012.5
20180527184400 82 122 1.0 3.0 0.00 0.08 0.01 70 1012.4
20180527184103 82 168 1.0 3.0 0.00 0.08 0.01 68 1012.5
20180527183757 82 76 1.0 3.0 0.00 0.08 0.01 72 1012.6
20180527182221 81 144 1.0 3.0 0.00 0.08 0.01 70 1012.7
20180527181908 81 355 0.0 3.0 0.00 0.08 0.01 72 1012.7
20180527181558 81 0 0.0 3.0 0.00 0.08 0.01 71 1012.7
20180527181300 81 13 0.0 3.0 0.00 0.08 0.01 72 1012.6
20180527180950 81 40 0.0 3.0 0.00 0.08 0.01 72 1012.6
20180527180651 81 109 0.0 3.0 0.00 0.08 0.01 73 1012.6
20180527180350 80 65 0.0 2.0 0.00 0.08 0.01 73 1012.7
20180527175439 81 171 0.0 0.0 0.00 0.08 0.01 74 1012.8
20180527174827 81 76 0.0 3.0 0.00 0.08 0.01 75 1012.9
20180527174523 80 134 0.0 3.0 0.00 0.08 0.01 75 1012.8
20180527174210 80 70 0.0 1.0 0.00 0.08 0.01 77 1012.9
20180527173903 80 71 0.0 1.0 0.00 0.08 0.01 79 1012.8
20180527172949 79 74 0.0 2.0 0.00 0.08 0.01 80 1012.9
20180527172331 79 116 0.0 2.0 0.00 0.08 0.01 77 1013.0
20180527172019 79 150 0.0 2.0 0.00 0.08 0.01 76 1013.0
20180527171712 79 94 0.0 2.0 0.00 0.08 0.01 77 1013.0
20180527171359 79 94 0.0 2.0 0.00 0.08 0.01 78 1013.0
20180527171058 79 69 0.0 2.0 0.00 0.08 0.01 77 1013.0
20180527170748 78 75 0.0 2.0 0.00 0.08 0.01 81 1013.0
20180527165516 78 103 0.0 2.0 0.00 0.08 0.01 78 1013.0
20180527164611 78 17 0.0 2.0 0.00 0.08 0.01 79 1013.0
20180527164306 77 85 0.0 0.0 0.00 0.08 0.01 81 1013.0
20180527164006 77 70 0.0 0.0 0.00 0.08 0.01 80 1013.0
20180527163700 77 101 0.0 4.0 0.00 0.08 0.01 79 1013.0
20180527163403 77 98 1.0 4.0 0.00 0.08 0.01 79 1013.0
20180527163051 77 69 0.0 4.0 0.00 0.08 0.01 82 1013.0
20180527162145 76 59 0.0 1.0 0.00 0.08 0.01 82 1013.0
20180527161848 76 57 0.0 0.0 0.00 0.08 0.01 82 1013.0
20180527161542 76 343 0.0 2.0 0.00 0.08 0.01 82 1013.0
20180527161244 76 0 0.0 2.0 0.00 0.08 0.01 83 1013.0
20180527160941 76 341 0.0 2.0 0.00 0.08 0.01 81 1013.0
20180527160339 76 153 0.0 1.0 0.00 0.08 0.01 84 1013.1
20180527160034 75 188 0.0 0.0 0.00 0.08 0.01 84 1013.1
20180527154523 75 145 0.0 2.0 0.00 0.08 0.01 85 1013.2
20180527153919 74 153 0.0 2.0 0.00 0.08 0.01 85 1013.2
20180527153309 74 323 0.0 1.0 0.00 0.08 0.01 87 1013.1
20180527152707 74 5 0.0 1.0 0.00 0.08 0.01 87 1013.1
20180527151742 73 242 0.0 1.0 0.00 0.08 0.01 88 1013.1
20180527151126 73 234 0.0 3.0 0.00 0.08 0.01 88 1013.1
20180527150211 72 99 0.0 2.0 0.00 0.08 0.01 90 1013.1
20180527145857 72 88 1.0 2.0 0.00 0.08 0.01 89 1013.2
20180527144634 72 5 0.0 3.0 0.00 0.08 0.01 90 1013.0
20180527144007 71 84 0.0 3.0 0.00 0.08 0.01 92 1013.1
20180527143352 71 61 0.0 3.0 0.00 0.08 0.01 91 1013.1
20180527143049 71 71 0.0 1.0 0.00 0.08 0.01 92 1013.1
20180527142743 71 103 0.0 0.0 0.00 0.08 0.01 92 1013.1
20180527141538 71 175 0.0 2.0 0.00 0.08 0.01 92 1013.3
20180527141232 71 198 0.0 2.0 0.00 0.08 0.01 92 1013.3
20180527140625 70 92 0.0 1.0 0.00 0.08 0.01 92 1013.2
20180527140029 71 60 0.0 1.0 0.00 0.08 0.01 93 1013.2
20180527135409 70 57 0.0 0.0 0.00 0.08 0.01 94 1013.2
20180527135107 70 43 0.0 0.0 0.00 0.08 0.01 94 1013.1
20180527134451 70 344 0.0 1.0 0.00 0.08 0.01 94 1013.0
20180527134137 70 337 0.0 1.0 0.00 0.08 0.01 95 1013.0
20180527133832 70 330 0.0 1.0 0.00 0.08 0.01 95 1013.1
20180527133522 69 309 0.0 0.0 0.00 0.08 0.01 95 1013.1
20180527132907 69 307 0.0 1.0 0.00 0.08 0.01 95 1013.0
20180527132607 69 285 0.0 0.0 0.00 0.08 0.01 95 1013.0
20180527132255 69 285 0.0 1.0 0.00 0.08 0.01 95 1013.0
20180527131946 69 223 0.0 0.0 0.00 0.08 0.01 95 1013.0
20180527131646 69 219 0.0 0.0 0.00 0.08 0.01 96 1013.0
20180527131031 69 216 0.0 1.0 0.00 0.08 0.01 96 1012.8
20180527130719 69 246 0.0 1.0 0.00 0.08 0.01 96 1012.8
20180527130415 69 244 0.0 0.0 0.00 0.08 0.01 96 1012.8
20180527125516 68 237 0.0 0.0 0.00 0.08 0.01 96 1012.8
20180527124904 68 241 0.0 2.0 0.00 0.08 0.01 97 1012.7
20180527124301 68 217 0.0 0.0 0.00 0.08 0.01 96 1012.6
20180527124000 68 217 0.0 0.0 0.00 0.08 0.01 96 1012.6
20180527123701 68 195 0.0 1.0 0.00 0.08 0.01 96 1012.7
20180527123055 68 263 0.0 0.0 0.00 0.08 0.01 97 1012.7
20180527122757 67 257 0.0 0.0 0.00 0.08 0.01 97 1012.6
20180527122458 67 260 0.0 0.0 0.00 0.08 0.01 97 1012.6
20180527122149 67 259 0.0 0.0 0.00 0.08 0.01 96 1012.6
20180527121843 67 257 0.0 0.0 0.00 0.08 0.01 96 1012.7
20180527121240 67 266 0.0 0.0 0.00 0.08 0.01 96 1012.6
20180527120936 67 267 0.0 0.0 0.00 0.08 0.01 96 1012.6
20180527120627 67 284 0.0 0.0 0.00 0.08 0.01 96 1012.5
20180527120024 67 198 0.0 0.0 0.00 0.08 0.01 96 1012.4
20180527115720 67 209 0.0 0.0 0.00 0.08 0.01 97 1012.4
20180527115103 67 218 0.0 0.0 0.00 0.08 0.01 97 1012.3
20180527114756 67 218 0.0 0.0 0.00 0.08 0.01 97 1012.4
20180527114445 67 218 0.0 0.0 0.00 0.08 0.01 97 1012.3
20180527113843 67 205 0.0 0.0 0.00 0.08 0.01 96 1012.3
20180527113543 67 205 0.0 0.0 0.00 0.08 0.01 96 1012.2
20180527112934 66 202 0.0 0.0 0.00 0.08 0.01 96 1012.1
20180527112315 66 202 0.0 0.0 0.00 0.08 0.01 96 1012.0
20180527111658 66 202 0.0 0.0 0.00 0.08 0.01 96 1011.9
20180527111059 66 202 0.0 0.0 0.00 0.08 0.01 97 1011.9
20180527110758 66 202 0.0 0.0 0.00 0.08 0.01 97 1011.8
20180527110453 66 202 0.0 0.0 0.00 0.08 0.01 97 1011.7
20180527110140 66 202 0.0 0.0 0.00 0.08 0.01 97 1011.7
20180527105832 66 202 0.0 0.0 0.00 0.08 0.01 97 1011.7
20180527105520 66 202 0.0 0.0 0.00 0.08 0.01 97 1011.7
20180527105221 66 202 0.0 0.0 0.00 0.08 0.01 97 1011.6
20180527104617 66 202 0.0 0.0 0.00 0.08 0.01 97 1011.6
20180527104317 66 202 0.0 0.0 0.00 0.08 0.01 96 1011.6
20180527104018 66 202 0.0 0.0 0.00 0.08 0.01 96 1011.5
20180527103717 66 202 0.0 0.0 0.00 0.08 0.01 96 1011.5
20180527103411 66 202 0.0 0.0 0.00 0.08 0.01 96 1011.5
20180527103102 66 202 0.0 0.0 0.00 0.08 0.01 96 1011.4
20180527102449 66 202 0.0 0.0 0.00 0.08 0.01 96 1011.3
20180527102143 66 202 0.0 0.0 0.00 0.08 0.01 96 1011.3
20180527101844 66 202 0.0 0.0 0.00 0.08 0.01 96 1011.3
20180527101548 66 202 0.0 0.0 0.00 0.08 0.01 96 1011.2
20180527100037 65 97 0.0 0.0 0.00 0.08 0.01 96 1011.0
20180527095726 65 98 0.0 0.0 0.00 0.08 0.01 96 1010.9
20180527095128 65 95 0.0 0.0 0.00 0.08 0.01 96 1010.9
20180527094820 65 95 0.0 0.0 0.00 0.08 0.01 96 1010.9
20180527094520 65 95 0.0 0.0 0.00 0.08 0.01 96 1010.9
20180527094207 65 95 0.0 0.0 0.00 0.08 0.01 96 1010.9
20180527093601 66 95 0.0 0.0 0.00 0.08 0.01 96 1010.7
20180527092648 65 95 0.0 0.0 0.00 0.08 0.01 96 1010.6
20180527092048 65 95 0.0 0.0 0.00 0.08 0.01 96 1010.6
20180527091143 65 95 0.0 0.0 0.00 0.08 0.01 96 1010.5
20180527090831 65 95 0.0 0.0 0.00 0.08 0.01 96 1010.4
20180527090523 65 95 0.0 0.0 0.00 0.08 0.01 96 1010.4
20180527085606 65 95 0.0 0.0 0.00 0.08 0.01 96 1010.4
20180527085305 65 95 0.0 0.0 0.00 0.08 0.01 96 1010.4
20180527085000 65 95 0.0 0.0 0.00 0.08 0.01 96 1010.4
20180527084043 65 95 0.0 0.0 0.00 0.08 0.01 96 1010.3
20180527083433 65 95 0.0 0.0 0.00 0.08 0.01 96 1010.2
20180527083126 65 95 0.0 0.0 0.00 0.08 0.01 96 1010.2
20180527081901 65 95 0.0 0.0 0.00 0.08 0.01 96 1010.0
20180527081601 65 95 0.0 0.0 0.00 0.08 0.01 96 1010.0
20180527080651 66 95 0.0 0.0 0.00 0.08 0.01 96 1010.0
20180527080049 66 95 0.0 0.0 0.00 0.08 0.01 96 1010.1
20180527075738 66 95 0.0 0.0 0.00 0.08 0.01 96 1010.0
20180527075437 66 95 0.0 0.0 0.00 0.08 0.01 96 1010.0
20180527075132 66 95 0.0 0.0 0.00 0.08 0.01 96 1010.1
20180527074828 66 95 0.0 0.0 0.00 0.08 0.01 96 1010.1
20180527073622 66 95 0.0 0.0 0.00 0.08 0.01 96 1010.0
20180527073318 66 95 0.0 0.0 0.00 0.08 0.01 96 1009.9
20180527073011 66 121 0.0 0.0 0.00 0.08 0.01 96 1010.0
20180527072414 66 121 0.0 0.0 0.00 0.08 0.01 96 1010.0
20180527072105 66 121 0.0 0.0 0.00 0.08 0.01 96 1010.1
20180527071459 66 121 0.0 0.0 0.00 0.08 0.01 96 1010.1
20180527071157 66 109 0.0 0.0 0.00 0.08 0.01 96 1010.1
20180527070855 66 109 0.0 0.0 0.00 0.08 0.01 96 1010.1
20180527070545 66 109 0.0 0.0 0.00 0.08 0.01 96 1010.1
20180527070239 66 109 0.0 0.0 0.00 0.08 0.01 96 1010.1
20180527065929 66 109 0.0 0.0 0.00 0.08 0.01 96 1010.1
20180527065615 66 109 0.0 0.0 0.00 0.08 0.01 96 1010.1
20180527065305 66 109 0.0 0.0 0.00 0.08 0.01 96 1010.1
20180527065003 66 109 0.0 0.0 0.00 0.08 0.01 96 1010.1
20180527064654 66 109 0.0 0.0 0.00 0.08 0.01 96 1010.2
20180527064345 66 109 0.0 0.0 0.00 0.08 0.01 96 1010.2
20180527064044 66 109 0.0 0.0 0.00 0.08 0.01 96 1010.3
20180527063431 66 109 0.0 0.0 0.00 0.08 0.01 96 1010.4
20180527062520 66 109 0.0 0.0 0.00 0.08 0.01 96 1010.5
20180527062218 66 109 0.0 0.0 0.00 0.08 0.01 96 1010.5
20180527060951 66 109 0.0 0.0 0.00 0.08 0.01 96 1010.7
20180527060653 66 109 0.0 0.0 0.00 0.08 0.01 96 1010.7
20180527060347 66 109 0.0 0.0 0.00 0.08 0.01 96 1010.7
20180527055111 66 109 0.0 0.0 0.00 0.08 0.01 96 1010.7
20180527054809 66 109 0.0 0.0 0.00 0.08 0.01 96 1010.8
20180527054210 66 109 0.0 0.0 0.00 0.08 0.01 96 1010.9
20180527053911 66 109 0.0 0.0 0.00 0.08 0.01 95 1010.9
20180527053605 66 109 0.0 0.0 0.00 0.08 0.01 95 1010.9
20180527053258 66 109 0.0 0.0 0.00 0.08 0.01 95 1010.9
20180527052955 66 109 0.0 0.0 0.00 0.08 0.01 95 1010.9
20180527052645 66 109 0.0 0.0 0.00 0.08 0.01 95 1011.0
20180527052332 66 109 0.0 0.0 0.00 0.08 0.01 95 1011.0
20180527051739 66 109 0.0 0.0 0.00 0.08 0.01 95 1010.9
20180527051136 66 109 0.0 0.0 0.00 0.08 0.01 95 1010.7
20180527050525 66 110 0.0 0.0 0.00 0.08 0.01 95 1010.7
20180527045621 66 110 0.0 0.0 0.00 0.08 0.01 95 1010.9
20180527045307 66 110 0.0 0.0 0.00 0.08 0.01 95 1010.9
20180527044654 66 110 0.0 0.0 0.00 0.08 0.01 95 1010.9
20180527043721 66 110 0.0 0.0 0.00 0.08 0.01 95 1011.0
20180527043413 66 110 0.0 0.0 0.00 0.08 0.01 95 1010.9
20180527042818 66 110 0.0 0.0 0.00 0.08 0.01 95 1011.0
20180527042519 66 110 0.0 0.0 0.00 0.08 0.01 95 1011.0
20180527041922 66 110 0.0 0.0 0.00 0.08 0.01 95 1010.9
20180527041004 66 111 0.0 0.0 0.00 0.06 0.00 95 1010.9
20180527040657 66 111 0.0 0.0 0.00 0.06 0.00 95 1010.9
20180527035728 66 176 0.0 0.0 0.00 0.06 0.06 95 1011.0
20180527035422 66 176 0.0 0.0 0.00 0.06 0.06 95 1011.1
20180527035113 66 176 0.0 0.0 0.00 0.06 0.06 95 1011.1
20180527034453 66 176 0.0 0.0 0.00 0.06 0.06 95 1011.1
20180527033546 66 176 0.0 0.0 0.00 0.06 0.06 95 1011.2
20180527033236 66 176 0.0 0.0 0.00 0.06 0.06 95 1011.2
20180527032624 66 176 0.0 0.0 0.00 0.06 0.06 95 1011.1
20180527032315 66 176 0.0 0.0 0.00 0.06 0.06 95 1011.2
20180527031700 66 176 0.0 0.0 0.00 0.06 0.06 95 1011.2
20180527031347 66 176 0.0 0.0 0.00 0.06 0.06 95 1011.1
20180527031032 66 176 0.0 0.0 0.00 0.06 0.06 95 1011.0
20180527030727 66 176 0.0 0.0 0.00 0.06 0.06 95 1010.9
20180527030422 66 176 0.0 0.0 0.00 0.06 0.06 94 1010.9
20180527030122 67 176 0.0 0.0 0.00 0.06 0.06 94 1010.9
20180527025507 67 176 0.0 1.0 0.00 0.06 0.06 94 1010.9
20180527024901 67 143 0.0 0.0 0.00 0.06 0.06 94 1010.9
20180527024553 67 143 0.0 1.0 0.00 0.06 0.06 94 1010.9
20180527024245 67 143 0.0 0.0 0.00 0.06 0.06 94 1010.9
20180527022048 67 200 0.0 1.0 0.00 0.06 0.06 94 1010.5
20180527021443 68 178 0.0 1.0 0.00 0.06 0.06 94 1010.4
20180527021130 68 229 0.0 0.0 0.00 0.06 0.06 94 1010.5
20180527020827 68 229 0.0 0.0 0.00 0.06 0.06 94 1010.6
20180527020231 68 229 0.0 2.0 0.00 0.06 0.06 94 1010.5
20180527015924 68 184 0.0 2.0 0.00 0.06 0.06 94 1010.4
20180527015259 68 131 0.0 2.0 0.00 0.06 0.06 94 1010.3
20180527014701 68 155 0.0 2.0 0.00 0.06 0.06 94 1010.2
20180527013738 68 148 0.0 0.0 0.00 0.06 0.06 94 1010.3
20180527012827 69 163 0.0 1.0 0.00 0.06 0.06 94 1010.3
20180527011914 69 82 0.0 0.0 0.00 0.04 0.06 94 1010.3
20180527011602 69 63 0.0 0.0 0.00 0.04 0.05 94 1010.3
20180527011306 69 63 0.0 0.0 0.00 0.04 0.05 94 1010.2